Flight Track Log - Related Links

Times and Time Zones

All times are in EDT time to prevent confusion due to time zone crossing. See the SWA709 flight status page for this flight to view local times or setup timezone preferences in your user account.

Time Position Orientation Groundspeed Altitude Reporting Facility
EDT Latitude Longitude Course Direction KTS MPH feet Rate Location/Type
Wed 12:38:17 PM 37.4333 -121.9500 360° North 235 270 4,300  Level Northern Cal TRACON
Wed 12:39:11 PM 37.4000 -121.8833 122° Southeast 224 258 6,500 2,789 Climbing Northern Cal TRACON
Wed 12:40:11 PM 37.3333 -121.8500 158° South 247 284 9,600 2,905 Climbing Northern Cal TRACON
Wed 12:41:17 PM 37.3439 -121.9189 281° West 241 277 12,600 1,984 Climbing Oakland Center
Wed 12:42:18 PM 37.4200 -121.9319 352° North 285 328 13,800 1,756 Climbing Oakland Center
Wed 12:43:20 PM 37.5189 -121.9464 353° North 355 409 16,200 2,390 Climbing Oakland Center
Wed 12:44:21 PM 37.6214 -121.9614 353° North 370 426 18,700 2,754 Climbing Oakland Center
Wed 12:45:22 PM 37.7542 -121.9728 356° North 401 461 21,800 2,585 Climbing Oakland Center
Wed 12:46:24 PM 37.8336 -121.8694 46° Northeast 428 493 24,000 2,049 Climbing Oakland Center
Wed 12:47:25 PM 37.8753 -121.7203 70° East 449 517 26,000 1,902 Climbing Oakland Center
Wed 12:48:27 PM 37.9178 -121.5686 70° East 456 525 27,900 1,756 Climbing Oakland Center
Wed 12:49:28 PM 37.9589 -121.4214 70° East 463 533 29,600 2,016 Climbing Oakland Center
Wed 12:50:29 PM 38.0108 -121.2347 70° East 470 541 32,000 2,000 Climbing Oakland Center
Wed 12:51:31 PM 38.0531 -121.0819 71° East 465 535 33,700 1,561 Climbing Oakland Center
Wed 12:52:32 PM 38.0939 -120.9294 71° East 461 531 35,200 1,426 Climbing Oakland Center
Wed 12:53:33 PM 38.1294 -120.7764 74° East 458 527 36,600 1,415 Climbing Oakland Center
Wed 12:54:35 PM 38.1658 -120.6233 73° East 456 525 38,100 1,171 Climbing Oakland Center
Wed 12:55:36 PM 38.2031 -120.4733 72° East 450 518 39,000 443 Climbing Oakland Center
Wed 12:56:37 PM 38.2386 -120.3233 73° East 447 514 39,000  Level Oakland Center
Wed 12:57:39 PM 38.2733 -120.1725 74° East 445 512 39,000  Level Oakland Center
Wed 12:58:40 PM 38.3161 -119.9919 73° East 446 513 39,000  Level Oakland Center
Wed 12:59:42 PM 38.3519 -119.8425 73° East 445 512 39,000  Level Oakland Center
Wed 01:00:43 PM 38.3861 -119.6911 74° East 446 513 39,000  Level Oakland Center
Wed 01:01:45 PM 38.4200 -119.5447 73° East 447 514 39,000 49 Level Oakland Center
Wed 01:02:46 PM 38.4539 -119.3936 74° East 447 514 39,100  Climbing Oakland Center
Wed 01:03:47 PM 38.4875 -119.2400 74° East 450 518 39,000 -49 Descending Oakland Center
Wed 01:04:49 PM 38.5158 -119.0497 79° East 462 532 39,000  Level Oakland Center
Wed 01:05:50 PM 38.5319 -118.8883 83° East 461 531 39,000  Level Oakland Center
Wed 01:06:51 PM 38.5489 -118.7275 82° East 459 528 39,000  Level Oakland Center
Wed 01:07:53 PM 38.5642 -118.5642 83° East 465 535 39,000  Level Oakland Center
Wed 01:08:54 PM 38.5803 -118.4022 83° East 463 533 39,000  Level Oakland Center
Wed 01:09:55 PM 38.5956 -118.2389 83° East 465 535 39,000 49 Level Oakland Center
Wed 01:10:57 PM 38.6111 -118.0761 83° East 463 533 39,100  Climbing Oakland Center
Wed 01:11:58 PM 38.6264 -117.9089 83° East 468 539 39,000 -49 Descending Oakland Center
Wed 01:13:00 PM 38.6406 -117.7436 84° East 466 536 39,000  Level Oakland Center
Wed 01:14:01 PM 38.6544 -117.5761 84° East 468 539 39,000  Level Oakland Center
Wed 01:15:02 PM 38.6719 -117.3772 84° East 467 537 39,000  Level Oakland Center
Wed 01:15:56 PM 38.6861 -117.2447 82° East 465 535 39,000  Level Salt Lake Center
Wed 01:16:58 PM 38.7106 -117.0819 79° East 464 534 39,000  Level Salt Lake Center
Wed 01:18:06 PM 38.7406 -116.8850 79° East 467 537 39,000  Level Oakland Center
Wed 01:19:00 PM 38.7594 -116.7539 79° East 466 536 39,000  Level Salt Lake Center
Wed 01:20:02 PM 38.7828 -116.5894 80° East 466 536 39,000  Level Salt Lake Center
Wed 01:21:03 PM 38.8083 -116.4247 79° East 469 540 39,000  Level Salt Lake Center
Wed 01:22:05 PM 38.8306 -116.2600 80° East 469 540 39,000  Level Salt Lake Center
Wed 01:23:06 PM 38.8589 -116.0633 79° East 467 537 39,000  Level Salt Lake Center
Wed 01:24:07 PM 38.8814 -115.8983 80° East 468 539 39,000  Level Salt Lake Center
Wed 01:25:09 PM 38.9033 -115.7350 80° East 466 536 39,000  Level Salt Lake Center
Wed 01:26:10 PM 38.9261 -115.5706 80° East 467 537 39,000  Level Salt Lake Center
Wed 01:27:11 PM 38.9486 -115.4061 80° East 467 537 39,000  Level Salt Lake Center
Wed 01:28:13 PM 38.9725 -115.2269 80° East 469 540 39,000  Level Salt Lake Center
Wed 01:29:14 PM 38.9961 -115.0625 79° East 469 540 39,000  Level Salt Lake Center
Wed 01:30:16 PM 39.0167 -114.8986 81° East 466 536 39,000  Level Salt Lake Center
Wed 01:31:17 PM 39.0381 -114.7306 81° East 473 544 39,000 49 Level Salt Lake Center
Wed 01:32:19 PM 39.0606 -114.5611 80° East 479 551 39,100  Climbing Salt Lake Center
Wed 01:33:20 PM 39.0819 -114.3911 81° East 482 555 39,000 -49 Descending Salt Lake Center
Wed 01:34:22 PM 39.1031 -114.2175 81° East 488 562 39,000  Level Salt Lake Center
Wed 01:35:23 PM 39.1250 -114.0433 81° East 493 567 39,000  Level Salt Lake Center
Wed 01:36:25 PM 39.1506 -113.8317 81° East 497 572 39,000  Level Salt Lake Center
Wed 01:37:26 PM 39.1725 -113.6575 81° East 495 570 39,000  Level Salt Lake Center
Wed 01:38:28 PM 39.1919 -113.4803 82° East 498 573 39,000  Level Salt Lake Center
Wed 01:39:29 PM 39.2133 -113.3025 81° East 501 577 39,000  Level Salt Lake Center
Wed 01:40:31 PM 39.2328 -113.1250 82° East 501 577 39,000  Level Salt Lake Center
Wed 01:41:32 PM 39.2539 -112.9483 81° East 500 575 39,000  Level Salt Lake Center
Wed 01:42:34 PM 39.2739 -112.7681 82° East 506 582 39,000  Level Salt Lake Center
Wed 01:43:36 PM 39.2958 -112.5733 82° East 505 581 39,000  Level Salt Lake Center
Wed 01:44:37 PM 39.3233 -112.3953 79° East 509 586 39,000  Level Salt Lake Center
Wed 01:45:39 PM 39.3561 -112.2203 76° East 505 581 39,000  Level Salt Lake Center
Wed 01:46:40 PM 39.3900 -112.0442 76° East 508 585 39,000  Level Salt Lake Center
Wed 01:47:42 PM 39.4289 -111.8303 77° East 511 588 39,000  Level Salt Lake Center
Wed 01:48:44 PM 39.4600 -111.6531 77° East 510 587 39,000  Level Salt Lake Center
Wed 01:49:45 PM 39.4931 -111.4753 76° East 511 588 39,000  Level Salt Lake Center
Wed 01:50:47 PM 39.5244 -111.2992 77° East 506 582 39,000  Level Salt Lake Center
Wed 01:51:49 PM 39.5550 -111.1250 77° East 506 582 39,000  Level Salt Lake Center
Wed 01:52:50 PM 39.5897 -110.9269 77° East 505 581 39,000  Level Salt Lake Center
Wed 01:53:52 PM 39.6178 -110.7600 78° East 498 573 39,000 48 Level Salt Lake Center
Wed 01:54:54 PM 39.6514 -110.5664 77° East 493 567 39,100  Climbing Salt Lake Center
Wed 01:55:55 PM 39.6800 -110.3975 78° East 499 574 39,000 -49 Descending Salt Lake Center
Wed 01:56:57 PM 39.7128 -110.2008 78° East 500 575 39,000  Level Salt Lake Center
Wed 01:57:59 PM 39.7408 -110.0308 78° East 503 579 39,000  Level Salt Lake Center
Wed 01:59:00 PM 39.7683 -109.8608 78° East 502 578 39,000  Level Salt Lake Center
Wed 02:00:02 PM 39.8008 -109.6611 78° East 504 580 39,000  Level Salt Lake Center
Wed 02:00:34 PM 39.8147 -109.5736 78° East 505 581 39,000  Level Denver Center
Wed 02:01:36 PM 39.8461 -109.3742 78° East 504 580 39,000  Level Denver Center
Wed 02:02:06 PM 39.8600 -109.2911 78° East 501 577 39,000  Level Salt Lake Center
Wed 02:03:07 PM 39.8867 -109.1206 78° East 500 575 39,000  Level Salt Lake Center
Wed 02:04:09 PM 39.9142 -108.9486 78° East 502 578 39,000  Level Salt Lake Center
Wed 02:04:41 PM 39.9311 -108.8317 79° East 503 579 39,000  Level Denver Center
Wed 02:05:43 PM 39.9553 -108.6572 80° East 505 581 39,000  Level Denver Center
Wed 02:06:45 PM 39.9797 -108.4814 80° East 508 585 39,000  Level Denver Center
Wed 02:07:46 PM 40.0064 -108.2778 80° East 508 585 39,000  Level Denver Center
Wed 02:08:48 PM 40.0306 -108.1050 80° East 506 582 39,000  Level Denver Center
Wed 02:09:50 PM 40.0575 -107.9011 80° East 509 586 39,000  Level Denver Center
Wed 02:10:51 PM 40.0811 -107.7261 80° East 512 589 39,000  Level Denver Center
Wed 02:11:53 PM 40.1081 -107.5208 80° East 514 592 39,000  Level Denver Center
Wed 02:12:55 PM 40.1303 -107.3442 81° East 514 592 39,000  Level Denver Center
Wed 02:13:56 PM 40.1531 -107.1675 80° East 516 594 39,000  Level Denver Center
Wed 02:14:58 PM 40.1789 -106.9617 81° East 515 593 39,000  Level Denver Center
Wed 02:16:00 PM 40.1994 -106.7858 81° East 511 588 39,000 -290 Level Denver Center
Wed 02:17:02 PM 40.2242 -106.5900 81° East 510 587 38,400 -1,415 Descending Denver Center
Wed 02:18:03 PM 40.2467 -106.4044 81° East 513 590 36,100 -3,171 Descending Denver Center
Wed 02:19:05 PM 40.2717 -106.1911 81° East 532 612 31,900 -3,707 Descending Denver Center
Wed 02:20:06 PM 40.2931 -106.0044 81° East 545 627 28,500 -3,171 Descending Denver Center
Wed 02:21:08 PM 40.3144 -105.8100 82° East 536 617 25,400 -3,000 Descending Denver Center
Wed 02:22:10 PM 40.3364 -105.6214 81° East 520 598 22,300 -1,935 Descending Denver Center
Wed 02:23:12 PM 40.3497 -105.4386 84° East 467 537 21,400 -1,268 Descending Denver Center
Wed 02:24:13 PM 40.2881 -105.3297 127° Southeast 374 430 19,700 -1,610 Descending Denver Center
Wed 02:25:15 PM 40.2275 -105.2336 130° Southeast 344 396 18,100 -1,317 Descending Denver Center
Wed 02:26:16 PM 40.1636 -105.1336 130° Southeast 336 387 17,000 -1,073 Descending Denver Center
Wed 02:27:18 PM 40.1078 -105.0472 130° Southeast 311 358 15,900 -1,161 Descending Denver Center
Wed 02:28:20 PM 40.0436 -104.9825 142° Southeast 293 337 14,600 -1,610 Descending Denver Center
Wed 02:29:21 PM 39.9731 -104.9156 144° Southeast 290 334 12,600 -1,610 Descending Denver Center
Wed 02:30:23 PM 39.9064 -104.8553 145° Southeast 293 337 11,300 -726 Descending Denver Center
Wed 02:31:25 PM 39.8347 -104.8339 167° South 271 312 11,100 -244 Descending Denver Center
Wed 02:32:26 PM 39.7633 -104.8283 177° South 240 276 10,800 -634 Descending Denver Center
Wed 02:33:28 PM 39.7014 -104.7983 160° South 238 274 9,800 -823 Descending Denver Center
Wed 02:34:30 PM 39.6528 -104.7481 141° Southeast 226 260 9,100 -780 Descending Denver Center
Wed 02:35:31 PM 39.6558 -104.6811 87° East 207 238 8,200 -732 Descending Denver Center
Wed 02:36:33 PM 39.7072 -104.6608 17° North 193 222 7,600 -634 Descending Denver Center
Wed 02:37:34 PM 39.7586 -104.6617 359° North 173 199 6,900 -683 Descending Denver Center
Wed 02:38:36 PM 39.7958 -104.6608 North 138 159 6,200 -726 Descending Denver Center
Wed 02:39:38 PM 39.8328 -104.6611 360° North 131 151 5,400 -774 Descending Denver Center
Wed 02:41:00 PM 39.8500 -104.6667 North  Level FlightAware Approximate
Wed 02:48:00 PM 39.8617 -104.6732 North  Level Estimated
Wed 02:49:00 PM 39.8617 -104.6732 North  Level Estimated
Wed 02:50:00 PM 39.8617 -104.6732 North  Level Estimated

Login

Don't have an account? Register now (free) for customized features, flight alerts, and more!